Regional Weather Roundup
Issued by NWS Lake Charles, LA

Home | Current Version | Previous Version | Text Only | Print | Product List | Glossary On
Versions: 1 2 3 4 5 6 7 8 9 10 11 12 13 14 15 16 17 18 19 20 21 22 23 24 25 26 27 28 29 30 31 32 33 34 35 36 37 38 39 40 41 42 43 44 45 46 47 48
000
ASUS44 KLCH 270410
RWRLCH
RWRLCH
REGIONAL WEATHER ROUNDUP
NATIONAL WEATHER SERVICE LAKE CHARLES LA
1000 PM CST MON JAN 26 2015

Note: "fair" indicates few or no clouds below 12,000 feet with no
significant weather and/or obstructions to visibility.


ACROSS SOUTHEAST TEXAS

CITY           SKY/WX    TMP DP  RH WIND       PRES   REMARKS
BEAUMONT       MOCLDY    50  42  74 SW7       30.15R
BEAUMONT CITY    N/A     52  41  66 SW6       30.15S
ORANGE         PTCLDY    54  41  60 SW5       30.16R
JASPER         CLEAR     44  41  88 CALM      30.14F
$$

ACROSS CENTRAL LOUISIANA

CITY           SKY/WX    TMP DP  RH WIND       PRES   REMARKS
LEESVILLE      CLEAR     54  37  54 W7        30.10R
FULLERTON        N/A     45  37  73 CALM      30.08R
ALEXANDRIA INT CLEAR     45  38  76 CALM      30.08S
ESLER FIELD    CLEAR     39  37  92 W3        30.09S
DERIDDER         N/A     44  38  79 CALM      30.14R
OAKDALE        CLEAR     38  37  94 CALM      30.12R
OPELOUSAS        N/A     46  38  73 CALM      30.10S
$$

ACROSS SOUTHWEST AND SOUTH CENTRAL LOUISIANA

CITY           SKY/WX    TMP DP  RH WIND       PRES   REMARKS
SULPHUR        CLEAR     52  41  67 SW6       30.14R
LAKE CHARLES   CLEAR     48  43  82 W3        30.13R
CHENNAULT INT  CLEAR     52  38  58 SW7       30.13R
CAMERON PHI    CLEAR     55  48  76 W8        30.17S
DEQUINCY         N/A     49  39  68 CALM      30.14R
JENNINGS         N/A     50  46  86 SW5       30.12R
LAFAYETTE      CLEAR     46  42  86 SW7       30.11S
NEW IBERIA     CLEAR     47  42  83 SW7       30.13S
ABBEVILLE        N/A     47  45  91 SW6       30.12S
PATTERSON      CLEAR     46  41  81 SW6       30.14R
SALT POINT       N/A     51  48  89 W5        30.13R
$$

SELECTED SITES ACROSS THE REGION

CITY           SKY/WX    TMP DP  RH WIND       PRES   REMARKS
HOUSTON BUSH   MOCLDY    58  41  53 SW5       30.16S
HOUSTON HOBBY  MOCLDY    56  42  59 SW7       30.17R
GALVESTON      PTCLDY    55  48  77 SW8       30.19S
COLLEGE STAT   MOCLDY    54  41  61 SW5       30.15S
CONROE         MOCLDY    44  40  85 CALM      30.15F
HUNTSVILLE     MOCLDY    56  38  50 SW7       30.13F
LUFKIN         PTCLDY    54  37  52 SW3       30.12S
SHREVEPORT     CLEAR     49  37  63 CALM      30.06R
MONROE         CLEAR     47  35  63 SW6       30.07S
NATCHEZ MS     CLEAR     45  34  65 SW6       30.08R
BATON ROUGE    CLEAR     47  35  63 SW6       30.09F
N.O. INTL ARPT PTCLDY    48  36  63 W7        30.10S
SLIDELL        CLEAR     44  36  73 CALM      30.08R
$$

MARINE REPORTS

STATION/POSITION TIME  TEMP    WIND        PRES    VSBY  WAVE
                       AIR SEA DIR/SP/G                  HT/PER
                 (UTC) (F)     (DEG/KT/KT) (MB)    (MI)  (FT/S)
BUOY 30 S HIGH I 0400   57 56  240/ 12/ 14 1021.5S         1/ 3
SEA RIM ST PARK  0400   55     240/  9/ 11 1021.6F
PORT ARTHUR      0400      52  240/  9/ 11 1020.9F
SABINE PASS N    0400   53 53  240/  6/  9 1020.9F
TEXAS POINT      NOT AVBL
CALCASIEU PASS   0400   56 54  270/ 10/ 12   N/A
LK CHARLES BEACH 0400   53 54              1020.4R
MARSH ISLAND     0300   56     270/ 13/ 15   N/A
FRESH WATER LOCK 0400   54 54  250/  7/ 11 1020.5R
AMERADA PASS     0400   51 47  230/  4/  6 1020.3R
$$



USA.gov is the U.S. government's official web portal to all federal, state and local government web resources and services.